GW1546 Weather Reports


Display with metric or nautical units.
time (UTC)temp
F
wind
direction
speed
MPH
gust
MPH
rain 1hr
in
rain 24hr
in
rain mn
in
humidity
%
barometer
mb
20260506062127 61 103 2.0 3.0 0.00 0.00 0.00 83
20260506061510 61 162 0.0 2.0 0.00 0.00 0.00 83
20260506060342 60 92 1.0 3.0 0.00 0.00 0.00 84
20260506050949 60 76 1.0 2.0 0.00 0.00 0.00 84
20260506050336 60 105 2.0 3.0 0.00 0.00 0.00 85
20260506044516 61 239 1.0 2.0 0.00 0.00 0.00 82
20260506043920 61 136 0.0 2.0 0.00 0.00 0.00 81
20260506042725 62 114 1.0 2.0 0.00 0.00 0.00 81
20260506042128 61 107 1.0 1.0 0.00 0.00 0.00 81
20260506041543 62 97 1.0 1.0 0.00 0.00 0.00 81
20260506040349 62 92 1.0 2.0 0.00 0.00 0.00 81
20260506035712 62 194 1.0 1.0 0.00 0.00 0.00 80
20260506035141 61 122 1.0 1.0 0.00 0.00 0.00 80
20260506033949 62 194 1.0 2.0 0.00 0.00 0.00 81
20260506033317 61 113 0.0 1.0 0.00 0.00 0.00 81
20260506032715 61 70 0.0 1.0 0.00 0.00 0.00 81
20260506032147 62 229 0.0 1.0 0.00 0.00 0.00 81
20260506031550 62 110 1.0 2.0 0.00 0.00 0.00 78
20260506030915 62 191 0.0 1.0 0.00 0.00 0.00 81
20260506030347 62 203 0.0 0.0 0.00 0.00 0.00 79
20260506025746 62 145 1.0 2.0 0.00 0.00 0.00 80
20260506025129 63 15 0.0 0.0 0.00 0.00 0.00 76
20260506024518 63 75 2.0 3.0 0.00 0.00 0.00 77
20260506023916 62 147 0.0 2.0 0.00 0.00 0.00 76
20260506023351 63 190 0.0 2.0 0.00 0.00 0.00 79
20260506022716 62 187 0.0 1.0 0.00 0.00 0.00 81
20260506022143 62 187 1.0 1.0 0.00 0.00 0.00 80
20260506021545 62 183 1.0 1.0 0.00 0.00 0.00 82
20260506020946 62 180 0.0 1.0 0.00 0.00 0.00 81
20260506020334 63 165 0.0 1.0 0.00 0.00 0.00 81
20260506015719 63 191 0.0 1.0 0.00 0.00 0.00 81
20260506015150 63 192 0.0 1.0 0.00 0.00 0.00 81
20260506014532 63 191 0.0 1.0 0.00 0.00 0.00 80
20260506013937 63 191 0.0 0.0 0.00 0.00 0.00 80
20260506013345 64 191 0.0 0.0 0.00 0.00 0.00 80
20260506012147 64 191 0.0 1.0 0.00 0.00 0.00 78
20260506010911 64 192 0.0 1.0 0.00 0.00 0.00 78
20260506003348 65 181 0.0 0.0 0.00 0.00 0.00 75
20260506002745 65 173 0.0 1.0 0.00 0.00 0.00 74
20260506002128 66 161 1.0 1.0 0.00 0.00 0.00 74
20260506001517 66 182 0.0 1.0 0.00 0.00 0.00 76
20260506000919 66 184 0.0 0.0 0.00 0.00 0.00 73
20260506000349 67 184 0.0 0.0 0.00 0.00 0.00 73
20260505235739 67 196 0.0 0.0 0.00 0.00 0.00 72
20260505235119 67 194 0.0 1.0 0.00 0.00 0.00 72
20260505234527 68 196 0.0 0.0 0.00 0.00 0.00 71
20260505233341 69 196 0.0 0.0 0.00 0.00 0.00 68
20260505232713 69 196 0.0 1.0 0.00 0.00 0.00 67
20260505232150 70 114 0.0 1.0 0.00 0.00 0.00 66
20260505231552 70 221 0.0 1.0 0.00 0.00 0.00 64
20260505230932 70 200 0.0 1.0 0.00 0.00 0.00 64
20260505230345 71 236 1.0 2.0 0.00 0.00 0.00 63
20260505225114 73 202 1.0 2.0 0.00 0.00 0.00 60
20260505224513 73 183 1.0 2.0 0.00 0.00 0.00 51
20260505223921 73 184 0.0 1.0 0.00 0.00 0.00 53
20260505223312 74 53 0.0 1.0 0.00 0.00 0.00 52
20260505222747 77 181 0.0 1.0 0.00 0.00 0.00 49
20260505222114 76 258 1.0 3.0 0.00 0.00 0.00 40
20260505221516 78 91 2.0 2.0 0.00 0.00 0.00 41
20260505220313 78 175 0.0 1.0 0.00 0.00 0.00 48
20260505215741 82 116 2.0 3.0 0.00 0.00 0.00 38
20260505215149 80 49 0.0 2.0 0.00 0.00 0.00 39
20260505214545 78 189 0.0 2.0 0.00 0.00 0.00 47
20260505213941 77 71 0.0 2.0 0.00 0.00 0.00 43
20260505213316 77 103 1.0 2.0 0.00 0.00 0.00 50
20260505212742 77 170 0.0 1.0 0.00 0.00 0.00 40
20260505212125 77 325 0.0 2.0 0.00 0.00 0.00 40
20260505211527 78 39 1.0 1.0 0.00 0.00 0.00 42
20260505210344 79 292 6.0 7.0 0.00 0.00 0.00 40
20260505205752 79 16 2.0 4.0 0.00 0.00 0.00 37
20260505205138 79 154 1.0 4.0 0.00 0.00 0.00 39 982.3
20260505204543 78 317 6.0 7.0 0.00 0.00 0.00 39
20260505203317 77 175 3.0 7.0 0.00 0.00 0.00 38 982.3
20260505202754 78 300 4.0 6.0 0.00 0.00 0.00 39 982.3
20260505202112 77 63 3.0 6.0 0.00 0.00 0.00 39 982.3
20260505201533 77 53 4.0 4.0 0.00 0.00 0.00 39 982.3
20260505200940 77 24 0.0 2.0 0.00 0.00 0.00 42 982.7
20260505195709 77 336 5.0 11.0 0.00 0.00 0.00 38 982.7
20260505194543 78 359 3.0 6.0 0.00 0.00 0.00 38 983.0
20260505193940 78 307 1.0 1.0 0.00 0.00 0.00 42 983.0
20260505193332 77 314 1.0 3.0 0.00 0.00 0.00 36 983.0
20260505192115 77 346 4.0 9.0 0.00 0.00 0.00 36 983.4
20260505190932 78 310 1.0 3.0 0.00 0.00 0.00 41 983.0
20260505190336 78 0 1.0 2.0 0.00 0.00 0.00 38 983.4
20260505185752 78 308 2.0 3.0 0.00 0.00 0.00 43 983.4
20260505185140 78 12 4.0 6.0 0.00 0.00 0.00 39 983.7
20260505184551 78 161 2.0 6.0 0.00 0.00 0.00 40 983.7
20260505183341 77 223 2.0 3.0 0.00 0.00 0.00 41 983.7
20260505181514 76 234 2.0 4.0 0.00 0.00 0.00 41 984.0
20260505180926 76 171 4.0 8.0 0.00 0.00 0.00 43 984.0
20260505180313 76 40 1.0 4.0 0.00 0.00 0.00 46 984.4
20260505175713 76 69 4.0 8.0 0.00 0.00 0.00 41 984.4
20260505175125 76 96 3.0 9.0 0.00 0.00 0.00 43 984.4
20260505174525 76 285 0.0 4.0 0.00 0.00 0.00 41 984.4
20260505173933 76 220 1.0 3.0 0.00 0.00 0.00 42 984.4
20260505173350 75 29 2.0 4.0 0.00 0.00 0.00 47 984.4
20260505172720 75 326 4.0 7.0 0.00 0.00 0.00 41 984.7
20260505172131 74 320 4.0 9.0 0.00 0.00 0.00 44 984.7
20260505171517 74 334 3.0 7.0 0.00 0.00 0.00 43 984.4
20260505170939 74 353 8.0 11.0 0.00 0.00 0.00 45 984.4
20260505170328 74 357 6.0 14.0 0.00 0.00 0.00 43 984.7
20260505165708 75 311 6.0 7.0 0.00 0.00 0.00 45 984.4
20260505165110 76 167 3.0 9.0 0.00 0.00 0.00 45 984.4
20260505164512 76 236 2.0 3.0 0.00 0.00 0.00 42 984.7
20260505163952 74 332 0.0 6.0 0.00 0.00 0.00 47 984.7
20260505163316 74 77 2.0 4.0 0.00 0.00 0.00 45 985.1
20260505162718 75 215 4.0 8.0 0.00 0.00 0.00 44 985.1
20260505162148 75 290 3.0 10.0 0.00 0.00 0.00 44 985.1
20260505161535 75 352 4.0 7.0 0.00 0.00 0.00 43 985.1
20260505160921 75 358 2.0 6.0 0.00 0.00 0.00 48 985.1
20260505160344 74 22 3.0 6.0 0.00 0.00 0.00 46 985.1
20260505153319 74 337 0.0 3.0 0.00 0.00 0.00 51 985.4
20260505152748 76 263 4.0 6.0 0.00 0.00 0.00 42 985.1
20260505152114 75 117 0.0 1.0 0.00 0.00 0.00 44 985.1
20260505151546 74 63 3.0 3.0 0.00 0.00 0.00 44 985.7
20260505150942 74 100 3.0 8.0 0.00 0.00 0.00 47 985.4
20260505150331 74 0 2.0 3.0 0.00 0.00 0.00 45 985.4
20260505140322 70 80 2.0 7.0 0.00 0.00 0.00 59 985.4
20260505124537 55 131 1.0 3.0 0.00 0.00 0.00 90 986.1
20260505123916 54 69 0.0 2.0 0.00 0.00 0.00 91 986.1
20260505123326 54 82 1.0 2.0 0.00 0.00 0.00 92 985.7
20260505122715 53 78 2.0 3.0 0.00 0.00 0.00 93 986.1
20260505122122 52 107 1.0 2.0 0.00 0.00 0.00 94 986.1
20260505120935 51 86 1.0 2.0 0.00 0.00 0.00 96 985.7
20260505120316 51 30 0.0 2.0 0.00 0.00 0.00 96 985.7
20260505115721 50 62 1.0 3.0 0.00 0.00 0.00 97 985.7
20260505115152 50 177 0.0 1.0 0.00 0.00 0.00 98 985.7
20260505114514 50 104 2.0 3.0 0.00 0.00 0.00 98 985.7
20260505113925 50 98 1.0 2.0 0.00 0.00 0.00 98 985.7
20260505113317 49 75 0.0 2.0 0.00 0.00 0.00 98 985.4
20260505112135 49 81 0.0 1.0 0.00 0.00 0.00 99 985.7
20260505111538 49 95 0.0 1.0 0.00 0.00 0.00 99 985.4
20260505110926 49 77 0.0 1.0 0.00 0.00 0.00 99 985.7
20260505110324 49 118 1.0 3.0 0.00 0.00 0.00 99 985.7
20260505101527 49 110 1.0 2.0 0.00 0.00 0.00 99 985.1
20260505100942 49 40 0.0 1.0 0.00 0.00 0.00 99 985.1
20260505100313 49 286 0.0 1.0 0.00 0.00 0.00 99 985.1
20260505095740 49 263 0.0 1.0 0.00 0.00 0.00 99 985.1
20260505095146 49 59 0.0 2.0 0.00 0.00 0.00 99 984.7
20260505094528 49 42 1.0 2.0 0.00 0.00 0.00 99 984.7
20260505093910 49 122 1.0 1.0 0.00 0.00 0.00 99 984.7
20260505093331 49 117 1.0 2.0 0.00 0.00 0.00 99 984.7
20260505092734 49 92 0.0 1.0 0.00 0.00 0.00 99 984.4
20260505092112 49 47 1.0 1.0 0.00 0.00 0.00 99 984.4
20260505091543 49 109 1.0 1.0 0.00 0.00 0.00 99 984.4
20260505090932 49 23 0.0 2.0 0.00 0.00 0.00 99 984.4
20260505090330 49 231 0.0 2.0 0.00 0.00 0.00 98 984.7
20260505085725 49 88 1.0 2.0 0.00 0.00 0.00 99 984.4
20260505085123 49 28 1.0 1.0 0.00 0.00 0.00 99 984.4
20260505084548 49 18 0.0 1.0 0.00 0.00 0.00 99 984.0
20260505083930 49 36 1.0 2.0 0.00 0.00 0.00 99 984.4
20260505082713 50 98 1.0 2.0 0.00 0.00 0.00 99 984.4
20260505081509 49 118 0.0 1.0 0.00 0.00 0.00 99 984.4
20260505080952 50 331 0.0 1.0 0.00 0.00 0.00 99 984.0
20260505080308 50 208 0.0 2.0 0.00 0.00 0.00 98 984.0
20260505075729 50 81 0.0 1.0 0.00 0.00 0.00 98 984.0
20260505075111 50 180 1.0 1.0 0.00 0.00 0.00 98 984.0
20260505073939 50 21 0.0 2.0 0.00 0.00 0.00 98 984.0
20260505073351 50 61 1.0 2.0 0.00 0.00 0.00 98 984.0
20260505072150 50 99 0.0 0.0 0.00 0.00 0.00 98 984.0
20260505070926 50 107 2.0 2.0 0.00 0.00 0.00 98 984.0
20260505070310 50 72 0.0 2.0 0.00 0.00 0.00 98 984.0
20260505065740 50 97 0.0 1.0 0.00 0.00 0.00 98 984.0
20260505064531 50 104 0.0 1.0 0.00 0.00 0.00 98 984.0
20260505063912 50 95 1.0 1.0 0.00 0.00 0.00 98 984.0
20260505063352 50 144 0.0 1.0 0.00 0.00 0.00 98 984.0